• In Hungary
  • List of Countries
  • For 7 days
  • Water Temperature
  • Satellite Maps
  • Weather Map
  • News
  • Weather Widgets
  • user-avatar
    Login

    Hourly Weather Perekhresne

    Today, 21 July, Saturday

    Time Temperature Precipitation Wind Pressure Humidity
    00:00 +17°C° 0 mm 2 mps 689 mmHg 94%
    01:00 +16°C° 0 mm 2 mps 689 mmHg 91%
    02:00 +13°C° 0 mm 0 mps 689 mmHg 100%
    03:00 +15°C° 0 mm 1 mps 689 mmHg 94%
    04:00 +16°C° 0 mm 2 mps 689 mmHg 88%
    05:00 +16°C° 0 mm 2 mps 689 mmHg 88%
    06:00 +16°C° 0 mm 2 mps 689 mmHg 93%
    07:00 +17°C° 0 mm 2 mps 690 mmHg 96%
    08:00 +18°C° 0 mm 3 mps 690 mmHg 92%
    09:00 +20°C° 0 mm 3 mps 691 mmHg 90%
    10:00 +20°C° 0 mm 2 mps 691 mmHg 88%
    11:00 +21°C° 0 mm 3 mps 691 mmHg 88%
    12:00 +21°C° 0 mm 3 mps 691 mmHg 87%
    13:00 +22°C° 0 mm 3 mps 691 mmHg 84%
    14:00 +22°C° 0 mm 3 mps 691 mmHg 86%
    15:00 +22°C° 0 mm 3 mps 691 mmHg 87%
    16:00 +21°C° 0.5 mm 3 mps 690 mmHg 91%
    17:00 +21°C° 1.3 mm 1 mps 690 mmHg 92%
    18:00 +21°C° 0.2 mm 2 mps 690 mmHg 97%
    19:00 +21°C° 0.1 mm 1 mps 690 mmHg 97%
    20:00 +20°C° 0.9 mm 1 mps 690 mmHg 100%
    21:00 +17°C° 0.1 mm 0 mps 690 mmHg 100%
    22:00 +17°C° 0 mm 0 mps 690 mmHg 100%
    23:00 +19°C° 0 mm 1 mps 690 mmHg 100%

    Tomorrow, 22 July, Sunday

    Time Temperature Precipitation Wind Pressure Humidity
    00:00 +19°C° 0 mm 1 mps 690 mmHg 97%
    01:00 +16°C° 0 mm 0 mps 690 mmHg 97%
    02:00 +15°C° 0 mm 0 mps 689 mmHg 99%
    03:00 +15°C° 0 mm 0 mps 689 mmHg 100%
    04:00 +15°C° 0 mm 1 mps 689 mmHg 100%
    05:00 +15°C° 0 mm 1 mps 689 mmHg 100%
    06:00 +14°C° 0 mm 1 mps 688 mmHg 100%
    07:00 +15°C° 0 mm 1 mps 689 mmHg 100%
    08:00 +16°C° 0 mm 1 mps 689 mmHg 100%
    09:00 +17°C° 0 mm 0 mps 689 mmHg 96%
    10:00 +19°C° 0 mm 0 mps 690 mmHg 89%
    11:00 +22°C° 0 mm 1 mps 690 mmHg 88%
    12:00 +23°C° 0 mm 1 mps 690 mmHg 86%
    13:00 +22°C° 0 mm 3 mps 689 mmHg 90%
    14:00 +22°C° 0.1 mm 4 mps 689 mmHg 93%
    15:00 +19°C° 8.1 mm 3 mps 688 mmHg 99%
    16:00 +21°C° 1 mm 1 mps 688 mmHg 93%
    17:00 +22°C° 0 mm 1 mps 688 mmHg 92%
    18:00 +22°C° 0 mm 1 mps 688 mmHg 91%
    19:00 +22°C° 0 mm 1 mps 687 mmHg 93%
    20:00 +21°C° 0 mm 1 mps 687 mmHg 100%
    21:00 +20°C° 0 mm 1 mps 687 mmHg 100%
    22:00 +19°C° 0 mm 1 mps 687 mmHg 100%
    23:00 +19°C° 0 mm 1 mps 687 mmHg 100%

    Day after tomorrow, 23 July, Monday

    Time Temperature Precipitation Wind Pressure Humidity
    00:00 +19°C° 0 mm 1 mps 687 mmHg 100%
    01:00 +16°C° 0 mm 0 mps 687 mmHg 100%
    02:00 +16°C° 0 mm 0 mps 687 mmHg 100%
    03:00 +18°C° 0 mm 1 mps 686 mmHg 100%
    04:00 +15°C° 0 mm 0 mps 686 mmHg 100%
    05:00 +15°C° 0 mm 0 mps 686 mmHg 100%
    06:00 +16°C° 0 mm 1 mps 686 mmHg 100%
    07:00 +18°C° 0 mm 1 mps 686 mmHg 100%
    08:00 +18°C° 0 mm 1 mps 687 mmHg 99%
    09:00 +18°C° 0 mm 0 mps 687 mmHg 96%
    10:00 +21°C° 0 mm 1 mps 687 mmHg 94%
    11:00 +20°C° 0 mm 2 mps 687 mmHg 92%
    12:00 +21°C° 0 mm 3 mps 687 mmHg 87%
    13:00 +21°C° 0 mm 3 mps 686 mmHg 86%
    14:00 +21°C° 0 mm 3 mps 686 mmHg 84%
    15:00 +21°C° 0 mm 3 mps 686 mmHg 87%
    16:00 +21°C° 0 mm 3 mps 686 mmHg 87%
    17:00 +21°C° 0 mm 3 mps 685 mmHg 91%
    18:00 +21°C° 0.1 mm 3 mps 685 mmHg 92%
    19:00 +20°C° 0 mm 2 mps 685 mmHg 95%
    20:00 +19°C° 0.2 mm 2 mps 685 mmHg 100%
    21:00 +19°C° 0 mm 2 mps 685 mmHg 100%
    22:00 +18°C° 0 mm 2 mps 685 mmHg 100%
    23:00 +18°C° 0 mm 2 mps 685 mmHg 100%

    24 July, Tuesday

    Time Temperature Precipitation Wind Pressure Humidity
    00:00 +18°C° 0 mm 2 mps 685 mmHg 100%
    01:00 +18°C° 0 mm 3 mps 684 mmHg 100%
    02:00 +18°C° 0.1 mm 2 mps 685 mmHg 100%
    03:00 +18°C° 0.7 mm 3 mps 684 mmHg 100%
    04:00 +17°C° 0.8 mm 3 mps 685 mmHg 100%
    05:00 +17°C° 0.7 mm 2 mps 685 mmHg 100%
    06:00 +17°C° 0 mm 2 mps 685 mmHg 100%
    07:00 +17°C° 0 mm 2 mps 685 mmHg 100%
    08:00 +17°C° 0.1 mm 2 mps 685 mmHg 100%
    09:00 +17°C° 0.1 mm 2 mps 685 mmHg 100%
    10:00 +18°C° 0 mm 3 mps 686 mmHg 100%
    11:00 +17°C° 0 mm 3 mps 686 mmHg 100%
    12:00 +17°C° 0 mm 3 mps 685 mmHg 100%
    13:00 +17°C° 0 mm 3 mps 685 mmHg 100%
    14:00 +18°C° 0 mm 3 mps 685 mmHg 100%
    15:00 +19°C° 0 mm 3 mps 686 mmHg 100%
    16:00 +20°C° 0 mm 4 mps 686 mmHg 100%
    17:00 +19°C° 0 mm 4 mps 686 mmHg 100%
    18:00 +19°C° 0.1 mm 4 mps 686 mmHg 100%
    19:00 +19°C° 0.6 mm 3 mps 686 mmHg 100%
    20:00 +18°C° 0 mm 3 mps 686 mmHg 100%
    21:00 +18°C° 0 mm 3 mps 686 mmHg 100%
    22:00 +18°C° 0 mm 2 mps 686 mmHg 100%
    23:00 +18°C° 0.1 mm 3 mps 686 mmHg 100%

    25 July, Wednesday

    Time Temperature Precipitation Wind Pressure Humidity
    00:00 +17°C° 0.1 mm 3 mps 686 mmHg 100%
    01:00 +17°C° 0.2 mm 3 mps 686 mmHg 100%
    02:00 +18°C° 6.7 mm 1 mps 686 mmHg 100%

    26 July, Thursday

    Time Temperature Precipitation Wind Pressure Humidity
    Show more